Location: Lac Lasalle
(46.0398°N, 74.1576°W)
Time: 03:50:04
(UTC-04:00)

Envisat - Visible Passes

Search period start: 14 October 2019 00:00
Search period end: 24 October 2019 00:00
Orbit: 764 x 766 km, 98.1° (Epoch: 14 October)

Date Brightness Start Highest point End Pass type
(mag) Time Alt. Az. Time Alt. Az. Time Alt. Az.
14 Oct 3.0 18:54:47 10° SSE 18:59:52 87° ENE 19:04:59 10° NNW visible
14 Oct 6.1 20:37:29 10° WSW 20:39:35 12° W 20:41:42 10° WNW visible
15 Oct 5.2 19:58:09 10° SSW 20:02:23 26° W 20:06:40 10° NW visible
16 Oct 6.6 06:26:53 10° ENE 06:28:41 12° E 06:30:30 10° ESE visible
16 Oct 3.8 19:20:26 10° S 19:25:24 55° W 19:30:25 10° NNW visible
17 Oct 3.0 18:43:35 10° SSE 18:48:37 71° ENE 18:53:42 10° N visible
17 Oct 5.9 20:25:09 10° SW 20:28:10 16° W 20:31:13 10° NW visible
18 Oct 4.8 19:46:30 10° SSW 19:51:02 33° W 19:55:37 10° NNW visible
19 Oct 3.4 19:09:04 10° S 19:14:07 70° WSW 19:19:12 10° NNW visible
20 Oct 3.1 18:32:26 10° SSE 18:37:23 57° ENE 18:42:22 10° N visible
20 Oct 5.6 20:13:07 10° SW 20:16:47 20° W 20:20:27 10° NW visible
21 Oct 6.2 06:39:58 10° NE 06:43:08 16° E 06:46:17 10° SE visible
21 Oct 4.4 19:34:57 10° SSW 19:39:42 41° W 19:44:31 10° NNW visible
22 Oct 3.0 18:57:46 10° SSE 19:02:50 86° WSW 19:07:57 10° NNW visible
22 Oct 6.2 20:41:04 10° WSW 20:42:37 11° W 20:44:10 10° WNW visible
23 Oct 3.3 18:21:21 10° SE 18:26:11 46° ENE 18:31:01 10° N visible
23 Oct 5.3 20:01:18 10° SSW 20:05:24 24° W 20:09:32 10° NW visible
